Location: Bouysse
(45.3674°N, 1.8947°E)
Time: 08:47:53
(UTC+00:00)

Cosmos-2242 - Pass Details

Date: 07 June 2020
Orbit: 591 x 617 km, 82.5° (Epoch: 15 July)

Event Time Altitude Azimuth Distance (km) Brightness Sun altitude
Rises 00:26:57 0° 354° (N) 2,839 7.8 -21.4°
Reaches altitude 10° 00:29:11 10° 358° (N) 1,932 6.7 -21.3°
Maximum altitude 00:33:24 60° 79° (E) 684 3.3 -21.2°
Enters shadow 00:34:25 45° 132° (SE) 810 3.4 -21.1°
